EW3714 Weather Reports


Display with metric or nautical units.
time (UTC)temp
F
wind
direction
speed
MPH
gust
MPH
rain 1hr
in
rain 24hr
in
rain mn
in
humidity
%
barometer
mb
20260503205847 84 347 3.0 4.0 0.00 0.00 0.00 32 1019.9
20260503205344 84 40 2.0 3.0 0.00 0.00 0.00 32 1020.1
20260503204840 84 268 0.0 4.0 0.00 0.00 0.00 32 1019.8
20260503204338 84 146 1.0 3.0 0.00 0.00 0.00 32 1019.8
20260503203835 85 166 0.0 4.0 0.00 0.00 0.00 32 1020.0
20260503203332 84 39 2.0 3.0 0.00 0.00 0.00 32 1020.1
20260503202829 84 178 2.0 3.0 0.00 0.00 0.00 31 1020.2
20260503202327 86 157 0.0 3.0 0.00 0.00 0.00 29 1020.4
20260503201826 87 95 0.0 2.0 0.00 0.00 0.00 30 1020.4
20260503201322 86 50 0.0 2.0 0.00 0.00 0.00 30 1020.6
20260503200820 86 209 0.0 3.0 0.00 0.00 0.00 32 1020.6
20260503200315 86 116 1.0 3.0 0.00 0.00 0.00 31 1020.6
20260503195813 84 20 0.0 5.0 0.00 0.00 0.00 33 1020.9
20260503195309 86 81 2.0 5.0 0.00 0.00 0.00 31 1020.8
20260503194807 84 117 0.0 4.0 0.00 0.00 0.00 35 1020.9
20260503194302 86 37 1.0 3.0 0.00 0.00 0.00 32 1020.7
20260503193759 85 164 0.0 4.0 0.00 0.00 0.00 32 1020.9
20260503193255 84 129 0.0 3.0 0.00 0.00 0.00 32 1020.9
20260503192751 85 180 2.0 4.0 0.00 0.00 0.00 31 1021.1
20260503192246 86 39 0.0 2.0 0.00 0.00 0.00 33 1021.0
20260503191743 84 115 2.0 2.0 0.00 0.00 0.00 34 1021.1
20260503191240 82 70 0.0 4.0 0.00 0.00 0.00 35 1021.3
20260503190737 84 171 2.0 3.0 0.00 0.00 0.00 33 1021.4
20260503190234 85 50 1.0 3.0 0.00 0.00 0.00 33 1021.4
20260503185731 84 13 2.0 3.0 0.00 0.00 0.00 32 1021.4
20260503185226 84 109 1.0 4.0 0.00 0.00 0.00 33 1021.6
20260503184721 84 62 2.0 2.0 0.00 0.00 0.00 35 1021.7
20260503184218 84 167 0.0 2.0 0.00 0.00 0.00 34 1021.7
20260503183714 83 130 2.0 2.0 0.00 0.00 0.00 34 1021.7
20260503183211 83 82 2.0 2.0 0.00 0.00 0.00 35 1021.8
20260503182709 84 103 2.0 4.0 0.00 0.00 0.00 34 1022.1
20260503182208 83 14 0.0 4.0 0.00 0.00 0.00 35 1022.2
20260503181704 82 143 0.0 3.0 0.00 0.00 0.00 37 1022.3
20260503181201 82 124 1.0 2.0 0.00 0.00 0.00 37 1022.1
20260503180657 81 115 0.0 4.0 0.00 0.00 0.00 35 1022.4
20260503180156 82 25 2.0 3.0 0.00 0.00 0.00 37 1022.7
20260503175652 83 174 1.0 2.0 0.00 0.00 0.00 35 1022.6
20260503175150 83 96 1.0 2.0 0.00 0.00 0.00 36 1022.7
20260503174646 83 116 0.0 2.0 0.00 0.00 0.00 34 1022.6
20260503174143 82 120 1.0 2.0 0.00 0.00 0.00 37 1022.7
20260503173638 81 146 1.0 2.0 0.00 0.00 0.00 38 1022.9
20260503173135 81 108 2.0 3.0 0.00 0.00 0.00 38 1022.8
20260503172632 80 92 2.0 2.0 0.00 0.00 0.00 37 1022.9
20260503172130 81 126 1.0 2.0 0.00 0.00 0.00 39 1022.8
20260503171626 80 79 2.0 2.0 0.00 0.00 0.00 39 1023.1
20260503171123 78 67 0.0 4.0 0.00 0.00 0.00 38 1023.0
20260503170620 79 160 2.0 2.0 0.00 0.00 0.00 38 1023.1
20260503170117 78 127 2.0 4.0 0.00 0.00 0.00 41 1023.3
20260503151012 66 63 3.0 3.0 0.00 0.00 0.00 66 1023.8
20260503150508 66 84 2.0 2.0 0.00 0.00 0.00 68 1023.8
20260503131402 53 102 2.0 2.0 0.00 0.00 0.00 96 1023.4
20260503130859 52 101 2.0 3.0 0.00 0.00 0.00 95 1023.1
20260503130356 51 102 2.0 4.0 0.00 0.00 0.00 95 1023.0
20260503110755 50 99 2.0 3.0 0.00 0.00 0.00 94 1022.4
20260503110252 50 88 2.0 4.0 0.00 0.00 0.00 93 1022.2
20260503100218 51 97 2.0 2.0 0.00 0.00 0.00 93 1021.5
20260503090148 52 89 2.0 2.0 0.00 0.00 0.00 93 1021.7
20260503081624 52 98 2.0 2.0 0.00 0.00 0.00 93 1021.9
20260503081121 52 89 2.0 2.0 0.00 0.00 0.00 92 1021.9
20260503080617 52 89 2.0 3.0 0.00 0.00 0.00 92 1021.8
20260503080114 52 75 2.0 2.0 0.00 0.00 0.00 92 1021.8
20260503072551 53 92 2.0 2.0 0.00 0.00 0.00 92 1022.0
20260503072048 53 82 2.0 2.0 0.00 0.00 0.00 92 1022.2
20260503071544 53 76 2.0 3.0 0.00 0.00 0.00 92 1022.0
20260503071041 53 93 2.0 3.0 0.00 0.00 0.00 92 1022.1
20260503070537 53 80 2.0 2.0 0.00 0.00 0.00 92 1022.2
20260503054951 55 73 2.0 2.0 0.00 0.00 0.00 90 1022.4
20260503054447 55 74 2.0 3.0 0.00 0.00 0.00 91 1022.4
20260503053945 55 92 2.0 2.0 0.00 0.00 0.00 90 1022.5
20260503053442 55 70 2.0 2.0 0.00 0.00 0.00 90 1022.4
20260503052939 55 82 2.0 2.0 0.00 0.00 0.00 90 1022.2
20260503052437 56 77 2.0 2.0 0.00 0.00 0.00 90 1022.5
20260503051932 56 66 2.0 2.0 0.00 0.00 0.00 89 1022.5
20260503051429 56 76 2.0 2.0 0.00 0.00 0.00 89 1022.5
20260503050926 56 74 2.0 2.0 0.00 0.00 0.00 89 1022.4
20260503050422 56 72 2.0 2.0 0.00 0.00 0.00 89 1022.4
20260503045920 56 80 2.0 2.0 0.00 0.00 0.00 88 1022.5
20260503045417 56 83 1.0 3.0 0.00 0.00 0.00 88 1022.3
20260503044914 56 82 2.0 3.0 0.00 0.00 0.00 87 1022.3
20260503044411 57 83 2.0 3.0 0.00 0.00 0.00 87 1022.4
20260503043908 57 91 2.0 2.0 0.00 0.00 0.00 87 1022.4
20260503043404 57 80 2.0 3.0 0.00 0.00 0.00 87 1022.3
20260503042901 57 81 2.0 2.0 0.00 0.00 0.00 86 1022.4
20260503042357 57 78 2.0 2.0 0.00 0.00 0.00 85 1022.4
20260503041853 58 81 2.0 3.0 0.00 0.00 0.00 86 1022.3
20260503041351 57 81 2.0 2.0 0.00 0.00 0.00 85 1022.2
20260503040848 57 85 2.0 2.0 0.00 0.00 0.00 85 1022.1
20260503040346 57 73 2.0 2.0 0.00 0.00 0.00 84 1022.2
20260503035842 58 82 2.0 2.0 0.00 0.00 0.00 83 1022.1
20260503035339 58 74 2.0 2.0 0.00 0.00 0.00 84 1022.1
20260503034837 58 82 2.0 2.0 0.00 0.00 0.00 83 1022.3
20260503034334 59 75 2.0 2.0 0.00 0.00 0.00 83 1022.0
20260503033831 59 78 2.0 2.0 0.00 0.00 0.00 82 1021.9
20260503033329 59 62 2.0 2.0 0.00 0.00 0.00 81 1021.9
20260503032827 59 78 2.0 3.0 0.00 0.00 0.00 81 1021.9
20260503032325 59 80 2.0 2.0 0.00 0.00 0.00 80 1021.8
20260503031822 59 82 2.0 2.0 0.00 0.00 0.00 78 1022.0
20260503031320 60 79 2.0 2.0 0.00 0.00 0.00 77 1021.8
20260503030816 60 72 2.0 2.0 0.00 0.00 0.00 76 1021.7
20260503030313 60 76 2.0 2.0 0.00 0.00 0.00 75 1021.7
20260503025809 61 71 2.0 2.0 0.00 0.00 0.00 75 1021.8
20260503025307 61 92 2.0 3.0 0.00 0.00 0.00 74 1021.8
20260503024804 61 67 2.0 2.0 0.00 0.00 0.00 73 1021.7
20260503024300 62 70 2.0 2.0 0.00 0.00 0.00 71 1021.6
20260503023757 62 66 2.0 2.0 0.00 0.00 0.00 70 1021.5
20260503023255 63 88 2.0 2.0 0.00 0.00 0.00 71 1021.2
20260503022751 63 85 2.0 2.0 0.00 0.00 0.00 69 1021.3
20260503022251 63 83 2.0 2.0 0.00 0.00 0.00 65 1021.2
20260503021748 64 89 2.0 2.0 0.00 0.00 0.00 62 1021.0
20260503021244 64 92 2.0 2.0 0.00 0.00 0.00 62 1021.1
20260503020742 64 89 2.0 2.0 0.00 0.00 0.00 61 1021.1
20260503020239 65 86 2.0 2.0 0.00 0.00 0.00 61 1021.1
20260503015735 65 94 2.0 2.0 0.00 0.00 0.00 60 1020.9
20260503015232 65 91 2.0 2.0 0.00 0.00 0.00 59 1021.0
20260503014728 66 92 2.0 2.0 0.00 0.00 0.00 59 1020.9
20260503014227 66 88 2.0 2.0 0.00 0.00 0.00 58 1021.0
20260503013723 67 88 2.0 2.0 0.00 0.00 0.00 57 1021.0
20260503013221 67 82 1.0 2.0 0.00 0.00 0.00 56 1021.0
20260503012718 67 91 2.0 2.0 0.00 0.00 0.00 55 1020.9
20260503012215 68 87 2.0 2.0 0.00 0.00 0.00 55 1020.7
20260503011711 68 85 1.0 2.0 0.00 0.00 0.00 54 1020.6
20260503011209 69 94 0.0 2.0 0.00 0.00 0.00 55 1020.6
20260503010704 69 98 2.0 2.0 0.00 0.00 0.00 52 1020.6
20260503010202 69 86 1.0 2.0 0.00 0.00 0.00 51 1020.7
20260503005659 70 89 1.0 2.0 0.00 0.00 0.00 52 1020.6
20260503005156 70 91 2.0 2.0 0.00 0.00 0.00 52 1020.7
20260503004652 70 88 2.0 2.0 0.00 0.00 0.00 51 1020.6
20260503004151 71 37 0.0 2.0 0.00 0.00 0.00 46 1020.5
20260503003648 71 77 2.0 3.0 0.00 0.00 0.00 46 1020.5
20260503003145 71 87 1.0 2.0 0.00 0.00 0.00 46 1020.5
20260503002641 71 97 0.0 2.0 0.00 0.00 0.00 43 1020.5
20260503002138 72 89 1.0 2.0 0.00 0.00 0.00 48 1020.4
20260503001634 72 100 1.0 2.0 0.00 0.00 0.00 47 1020.4
20260503001131 72 24 0.0 2.0 0.00 0.00 0.00 45 1020.5
20260503000629 73 68 2.0 2.0 0.00 0.00 0.00 46 1020.2
20260503000126 73 68 0.0 2.0 0.00 0.00 0.00 47 1020.4
20260502235622 73 72 0.0 2.0 0.00 0.00 0.00 42 1020.4
20260502235121 73 77 1.0 2.0 0.00 0.00 0.00 42 1020.4
20260502234616 73 52 1.0 2.0 0.00 0.00 0.00 41 1020.4
20260502234114 73 66 0.0 2.0 0.00 0.00 0.00 42 1020.4
20260502233609 73 89 0.0 2.0 0.00 0.00 0.00 43 1020.4
20260502233107 73 72 1.0 2.0 0.00 0.00 0.00 41 1020.4
20260502232602 73 50 0.0 2.0 0.00 0.00 0.00 44 1020.3
20260502232100 73 89 0.0 3.0 0.00 0.00 0.00 42 1020.3
20260502231557 74 110 0.0 2.0 0.00 0.00 0.00 44 1020.1
20260502231055 74 149 0.0 2.0 0.00 0.00 0.00 41 1020.2
20260502230553 74 59 2.0 2.0 0.00 0.00 0.00 43 1020.2
20260502230051 74 103 1.0 2.0 0.00 0.00 0.00 40 1020.1
20260502225546 74 44 1.0 2.0 0.00 0.00 0.00 42 1020.3
20260502225043 74 41 1.0 3.0 0.00 0.00 0.00 41 1020.3
20260502224539 74 34 3.0 3.0 0.00 0.00 0.00 41 1020.3
20260502224037 74 112 1.0 2.0 0.00 0.00 0.00 42 1020.3
20260502223534 74 56 1.0 2.0 0.00 0.00 0.00 42 1020.3
20260502223033 75 158 0.0 2.0 0.00 0.00 0.00 43 1020.2
20260502222529 75 67 0.0 2.0 0.00 0.00 0.00 43 1020.3
20260502222026 75 103 1.0 2.0 0.00 0.00 0.00 44 1020.5
20260502221521 75 151 0.0 3.0 0.00 0.00 0.00 41 1020.4
20260502221019 74 131 0.0 2.0 0.00 0.00 0.00 43 1020.4
20260502220514 74 244 0.0 3.0 0.00 0.00 0.00 42 1020.4
20260502220011 75 50 0.0 2.0 0.00 0.00 0.00 42 1020.5
20260502215509 75 43 1.0 2.0 0.00 0.00 0.00 41 1020.3
20260502215005 75 103 0.0 2.0 0.00 0.00 0.00 40 1020.4
20260502214502 74 38 1.0 2.0 0.00 0.00 0.00 42 1020.5
20260502214000 74 45 0.0 2.0 0.00 0.00 0.00 41 1020.6
20260502213456 76 19 1.0 2.0 0.00 0.00 0.00 43 1020.7
20260502212954 75 142 0.0 3.0 0.00 0.00 0.00 41 1020.6
20260502212453 75 164 1.0 2.0 0.00 0.00 0.00 40 1020.7
20260502211950 75 39 2.0 2.0 0.00 0.00 0.00 42 1020.8
20260502211445 76 135 1.0 2.0 0.00 0.00 0.00 41 1020.7
20260502210943 75 103 0.0 2.0 0.00 0.00 0.00 39 1020.9
20260502210440 76 56 0.0 2.0 0.00 0.00 0.00 37 1020.9
20260502205937 77 32 0.0 2.0 0.00 0.00 0.00 37 1021.0